Wetbulb
57.28 57.07 57.01 56.50 55.99 55.60 55.32 55.17 55.19 55.22 55.41 55.04 55.06 54.99 55.39 55.39 55.13 53.86 50.72 54.68 57.64 61.30 62.15 53.84 53.76 52.17 53.90 53.29 54.30 55.04 48.81 47.24 48.99 50.52 52.74 56.79 56.23 59.02 58.72 56.45 57.88 58.51 58.32 59.78 61.50
56.95 57.08 56.93 56.48 56.14 55.94 55.47 55.30 55.00 55.26 55.11 55.06 55.37 54.98 55.27 54.88 52.03 50.82 57.98 63.47 61.84 61.19 52.87 51.65 51.60 51.40 50.64 51.45 52.27 50.61 47.84 48.04 52.03 52.78 51.96 53.51 54.07 56.52 55.29 55.49 56.84 57.49 59.33 59.87 60.18
56.63 56.68 56.86 56.53 56.61 56.57 55.75 55.46 55.26 55.17 55.30 55.18 54.77 54.69 54.42 54.03 52.15 56.46 66.90 63.48 61.69 59.47 53.17 54.92 55.03 51.71 49.46 51.01 50.97 50.27 47.42 50.37 51.15 52.65 53.55 52.22 52.53 54.55 53.14 52.22 55.82 55.82 56.82 58.91 59.15
55.73 56.50 56.37 56.07 56.07 55.92 55.90 55.71 55.52 55.34 55.22 54.73 54.51 54.28 54.21 53.35 47.74 59.35 63.31 63.52 62.76 55.74 51.43 53.27 54.27 49.40 48.48 48.06 51.60 48.25 50.54 50.95 51.74 52.41 52.07 51.12 52.89 51.24 52.15 52.74 55.45 56.00 56.56 56.96 57.37
54.81 55.72 56.03 55.90 55.75 55.90 55.80 55.80 55.47 55.05 54.83 54.75 54.59 54.21 52.81 52.41 53.67 61.90 63.01 60.78 57.47 51.50 51.46 53.87 51.49 50.19 47.65 49.61 50.75 49.40 50.45 51.67 51.95 52.29 52.07 52.56 50.63 50.21 50.82 53.80 55.23 55.68 55.68 55.46 56.29
54.87 54.56 55.14 55.48 55.72 55.88 55.67 55.12 55.35 54.92 54.64 54.54 54.72 54.90 51.35 48.59 58.17 59.04 56.51 54.11 51.96 51.33 54.53 55.17 52.40 52.70 50.58 50.22 49.75 51.34 50.98 51.07 52.03 51.71 51.88 50.27 50.37 50.98 51.44 53.74 53.38 54.45 54.30 54.95 55.99
54.40 54.46 54.18 54.63 55.17 55.64 55.55 54.63 54.84 54.84 55.00 54.96 55.22 54.41 51.14 51.57 56.74 58.19 57.61 55.76 56.60 56.11 54.45 55.24 55.23 52.33 52.22 49.97 52.48 51.56 48.43 50.29 50.64 51.37 50.47 51.80 48.32 48.72 52.61 53.59 52.90 53.49 54.75 55.37 56.25
54.20 53.96 53.74 53.73 54.28 54.89 55.19 55.13 54.59 54.45 54.61 55.03 55.59 53.74 50.25 56.76 57.54 59.07 57.80 57.03 57.51 57.72 56.53 56.12 57.09 54.08 52.26 53.33 50.91 48.32 48.69 44.52 49.53 50.29 50.79 50.31 44.64 50.62 53.59 52.95 52.30 53.10 53.74 54.69 56.06
54.11 53.65 53.78 53.19 53.70 54.17 54.79 54.48 54.34 55.58 55.77 55.27 52.88 52.02 51.45 56.10 52.37 59.08 58.05 53.78 54.83 55.46 57.67 57.45 55.89 52.31 51.85 48.65 46.30 47.06 42.56 44.32 46.37 50.87 50.04 49.03 46.01 50.88 53.20 52.39 51.81 53.17 53.66 54.21 55.60
54.49 53.91 53.53 53.50 53.24 53.79 53.97 53.65 55.46 54.35 55.20 56.47 55.34 50.81 55.21 53.11 51.88 57.29 58.56 56.10 53.36 54.17 53.31 52.31 51.45 48.60 48.69 46.38 40.81 43.29 43.66 45.25 45.50 48.87 49.19 47.22 46.78 49.62 51.67 51.74 51.95 52.87 53.64 54.64 55.21
54.97 54.28 53.40 53.28 53.17 53.30 53.06 55.11 54.13 53.45 55.58 52.83 53.79 52.26 51.65 53.54 56.41 54.56 57.57 54.42 53.86 52.10 47.68 50.59 46.46 44.72 47.24 48.30 47.75 47.03 45.50 45.08 47.06 49.03 47.67 47.19 47.53 49.32 51.43 51.96 51.87 52.67 53.97 55.16 56.11
54.93 54.54 53.77 52.94 52.76 52.95 52.29 52.56 56.08 57.09 50.59 56.54 55.20 54.83 55.97 56.00 51.11 52.96 57.17 50.80 50.08 47.11 49.88 48.49 44.42 48.70 49.84 49.01 47.60 46.46 44.68 44.79 47.34 48.68 48.01 47.26 46.83 49.57 51.17 51.71 52.74 54.09 54.28 55.06 55.94
54.34 53.91 53.42 52.67 52.61 51.78 53.49 55.88 59.71 59.49 50.63 53.59 55.57 53.34 53.35 54.18 51.21 51.09 53.87 51.96 49.46 47.71 48.38 45.80 48.35 49.84 48.01 47.10 45.71 46.07 44.65 44.53 44.26 47.55 49.11 47.37 45.38 48.03 51.11 53.07 54.06 54.57 55.19 54.92 56.16
53.96 53.57 52.55 52.38 50.50 58.25 55.56 58.93 58.38 59.56 46.39 48.58 49.94 52.58 53.86 53.32 49.70 56.00 55.45 51.73 49.57 46.83 47.94 47.67 49.84 47.97 46.75 45.38 46.28 42.79 47.50 46.84 46.13 44.84 40.52 47.98 39.24 46.84 49.91 50.92 52.58 53.67 54.94 54.45 55.80
53.73 53.56 52.16 51.30 53.15 56.06 57.61 59.04 59.26 57.53 35.76 50.75 50.74 57.30 54.43 50.66 52.09 51.54 55.55 51.75 46.72 47.11 47.18 45.85 47.09 46.55 45.36 46.10 48.20 45.36 48.99 47.41 46.57 44.85 44.25 44.33 41.63 45.51 50.07 48.91 50.82 51.86 52.92 53.87 54.84
53.59 53.19 51.70 55.74 54.95 58.46 59.03 58.91 57.61 45.09 37.84 47.50 50.86 48.85 49.30 50.30 51.09 52.40 51.59 52.73 51.68 46.88 47.57 47.03 50.85 49.35 48.22 49.21 49.21 49.60 47.32 47.18 46.74 44.71 38.29 43.28 43.17 43.57 46.62 47.73 49.55 51.30 52.38 53.39 54.13
53.18 51.85 50.41 56.53 56.18 59.35 59.59 56.71 45.70 40.83 51.07 46.35 47.38 48.89 47.93 47.30 48.65 49.47 47.84 46.44 43.70 41.40 41.55 45.26 45.91 48.91 50.05 46.46 48.90 48.19 45.16 38.38 37.66 37.99 37.08 45.91 43.08 45.20 48.91 49.55 50.07 50.24 51.18 52.99 54.41
51.91 49.71 55.06 58.08 60.42 60.69 58.31 51.66 41.34 46.16 46.52 49.59 48.34 48.51 45.88 48.34 48.13 48.07 47.42 45.24 48.43 46.33 43.41 41.15 39.71 46.71 50.03 47.54 45.27 46.25 45.47 39.12 32.66 34.92 38.33 44.92 38.98 44.38 49.20 50.73 51.90 51.82 52.64 53.34 53.69
49.47 59.10 59.12 60.65 61.14 60.89 53.85 45.24 44.03 46.77 48.03 46.64 47.64 45.37 45.49 47.80 47.03 47.58 46.73 45.83 47.81 49.05 42.67 41.48 41.04 48.24 49.05 49.90 47.59 44.18 41.05 46.75 40.96 42.08 38.01 40.79 43.90 47.79 49.42 49.55 50.76 50.94 51.58 51.55 52.58
50.74 55.35 58.84 60.52 61.79 58.83 50.90 45.51 46.88 49.48 49.12 48.30 43.70 46.81 43.00 45.43 45.26 45.99 45.73 49.13 47.98 49.37 49.74 45.61 39.44 47.02 48.88 49.59 48.78 45.93 47.59 39.93 40.90 31.90 30.79 37.62 39.47 40.55 45.44 46.66 48.23 48.59 49.20 51.06 52.32
52.87 54.14 58.25 61.74 60.83 54.42 47.06 47.65 48.33 50.92 49.86 46.78 45.56 44.85 45.57 44.74 45.93 45.80 45.53 48.44 49.35 48.85 49.61 47.56 43.66 43.29 47.02 44.27 42.04 42.98 41.57 42.86 42.65 40.92 32.92 31.16 36.86 47.01 46.34 47.19 47.12 48.14 49.51 50.49 51.51
53.85 50.29 59.04 60.84 51.44 53.41 47.92 49.61 45.93 48.60 50.44 49.15 48.98 47.39 45.84 46.21 45.17 44.78 44.29 46.29 50.73 49.55 45.17 47.53 43.58 38.90 42.24 48.22 48.47 46.12 42.96 43.74 37.17 35.87 39.07 37.55 37.11 49.48 48.95 48.48 48.92 48.85 49.90 50.79 52.48
49.53 51.99 59.06 57.54 47.06 48.38 51.15 48.76 49.13 48.13 48.33 47.81 46.88 48.55 49.04 45.51 42.03 45.54 46.47 49.67 49.96 48.63 45.95 47.16 42.26 36.46 38.88 43.76 46.59 43.46 43.87 43.95 43.51 43.31 37.20 34.59 36.76 48.10 48.85 49.45 49.66 49.40 49.71 50.52 52.46
49.87 47.62 53.45 53.80 52.71 48.85 47.72 47.35 46.75 50.66 48.20 48.66 47.72 48.81 46.81 44.98 46.59 43.63 44.99 47.78 49.34 48.68 51.15 47.32 43.43 39.84 35.71 38.87 42.87 40.91 43.20 43.88 42.19 37.49 37.61 38.18 40.41 45.03 47.89 47.70 48.27 49.78 50.94 51.30 52.13
50.72 49.23 50.85 45.35 49.02 49.43 48.78 47.44 45.68 45.19 49.00 48.84 46.22 45.91 44.45 41.22 42.70 42.62 44.12 45.96 47.94 48.00 47.15 46.17 39.15 41.37 41.90 43.64 42.95 41.87 41.98 42.88 41.15 41.46 37.89 40.17 40.96 44.10 46.30 47.46 49.23 50.64 50.41 49.96 49.71
48.35 46.15 48.98 47.94 49.04 47.49 45.01 46.27 45.54 46.21 44.92 44.49 43.47 44.98 44.32 41.76 42.13 40.52 42.81 42.52 43.06 46.91 44.90 46.64 38.78 41.28 38.92 42.42 42.80 40.63 42.97 43.27 42.75 42.46 41.70 41.86 41.36 47.07 48.72 49.55 48.92 49.06 48.67 48.05 48.86
52.83 52.64 48.78 46.19 47.19 45.87 45.81 46.24 44.40 45.21 45.88 46.62 44.88 43.06 41.28 43.06 45.00 46.60 47.39 46.78 44.71 43.45 42.57 41.96 41.03 38.52 34.86 40.92 40.59 36.02 41.11 42.12 42.83 43.92 42.67 39.05 43.63 47.56 47.32 47.62 47.62 48.28 48.68 47.69 47.55
MSLP
1018.18 1017.66 1017.22 1016.85 1016.43 1016.03 1015.70 1015.42 1015.13 1014.91 1014.72 1014.45 1014.17 1013.92 1013.61 1013.28 1012.90 1012.27 1010.47 1008.33 1007.98 1008.37 1008.44 1008.06 1007.20 1006.92 1006.27 1005.13 1004.45 1004.23 1003.70 1002.30 1001.58 1000.55 999.84 999.42 1000.12 999.70 1000.12 1000.51 1000.05 1000.47 1000.60 1000.96 1001.57
1018.17 1017.70 1017.24 1016.71 1016.26 1015.88 1015.58 1015.27 1014.95 1014.70 1014.50 1014.31 1014.07 1013.75 1013.47 1013.22 1012.34 1009.89 1007.19 1007.26 1007.49 1008.04 1008.05 1007.34 1006.09 1006.00 1005.24 1004.48 1003.73 1002.96 1002.48 1001.78 1001.60 1000.98 1000.29 1000.14 999.99 999.93 1000.55 1000.74 1000.63 1000.89 1000.96 1001.06 1001.52
1018.03 1017.58 1017.10 1016.61 1016.13 1015.73 1015.40 1015.05 1014.77 1014.45 1014.28 1014.04 1013.83 1013.57 1013.38 1013.17 1010.60 1006.18 1004.80 1006.44 1007.16 1007.52 1007.58 1006.29 1005.08 1004.93 1004.37 1003.65 1002.93 1002.47 1001.57 1001.55 1001.06 1000.63 1000.59 1000.42 1000.90 1000.68 1000.94 1000.71 1000.41 1000.74 1000.97 1001.07 1001.26
1017.87 1017.40 1016.91 1016.45 1016.00 1015.58 1015.17 1014.80 1014.52 1014.30 1014.07 1013.82 1013.62 1013.45 1013.23 1012.54 1008.11 1005.94 1006.23 1006.45 1006.93 1007.16 1007.21 1006.25 1004.45 1003.80 1003.31 1002.49 1002.06 1001.65 1001.71 1001.35 1000.51 1000.23 1000.56 1001.07 1001.71 1001.58 1001.22 1001.19 1001.04 1001.15 1001.47 1001.65 1001.85
1017.69 1017.21 1016.81 1016.29 1015.80 1015.26 1014.90 1014.57 1014.30 1014.08 1013.91 1013.67 1013.48 1013.38 1012.83 1010.24 1006.37 1006.03 1006.32 1006.81 1006.93 1006.96 1006.41 1005.05 1003.23 1002.79 1002.42 1001.80 1001.36 1001.01 1000.94 1000.76 1000.66 1000.16 1000.57 1001.35 1001.61 1001.82 1001.75 1001.74 1001.66 1001.69 1001.82 1001.98 1002.15
1017.50 1017.05 1016.55 1016.14 1015.58 1015.09 1014.61 1014.24 1014.00 1013.83 1013.67 1013.47 1013.27 1013.22 1012.10 1007.95 1004.54 1005.57 1005.49 1006.25 1005.82 1006.12 1005.15 1003.67 1002.39 1002.10 1001.59 1000.94 1000.61 1000.53 1000.67 1000.51 1000.34 1000.51 1000.84 1001.43 1001.57 1001.71 1001.79 1001.97 1001.89 1001.92 1002.10 1002.40 1002.27
1017.47 1016.78 1016.24 1015.84 1015.44 1014.91 1014.40 1013.87 1013.57 1013.39 1013.33 1013.19 1013.08 1012.56 1010.28 1006.48 1004.35 1004.69 1005.16 1005.29 1004.91 1004.47 1003.27 1002.29 1001.71 1001.53 1001.09 1000.66 1000.48 1000.35 1000.80 1000.66 1000.32 1000.42 1000.85 1001.20 1001.20 1001.04 1001.12 1001.24 1001.58 1002.01 1002.08 1002.12 1002.15
1017.31 1016.80 1016.06 1015.52 1015.09 1014.61 1014.08 1013.53 1013.17 1012.85 1012.84 1012.91 1012.83 1011.93 1008.09 1003.96 1004.32 1004.34 1004.57 1004.18 1003.98 1003.61 1002.83 1002.31 1002.24 1001.70 1001.23 1000.77 1000.63 1000.78 1000.77 1000.29 999.92 1000.19 1000.46 1000.98 1000.47 1000.02 999.58 1000.38 1000.81 1001.39 1001.81 1002.09 1002.16
1017.11 1016.62 1016.04 1015.27 1014.74 1014.25 1013.64 1013.09 1012.63 1012.28 1012.30 1012.59 1012.37 1010.92 1006.30 1004.59 1004.30 1003.90 1004.03 1003.73 1003.88 1003.63 1003.26 1002.98 1003.03 1002.28 1001.67 1000.87 1000.91 1000.75 1000.18 999.80 999.18 998.60 999.61 1000.20 1000.34 999.70 999.99 1000.54 1001.04 1001.33 1001.58 1001.63 1001.65
1016.74 1016.20 1015.62 1015.04 1014.50 1013.96 1013.32 1012.56 1012.22 1012.18 1012.06 1011.59 1010.68 1009.56 1005.72 1003.56 1003.40 1003.50 1003.76 1003.64 1003.85 1003.73 1003.74 1003.66 1003.12 1002.34 1001.50 1001.00 1000.11 999.56 999.54 999.05 998.43 998.55 999.31 999.80 999.92 999.81 999.72 999.93 1000.14 1000.42 1000.78 1001.09 1001.17
1016.31 1015.75 1015.20 1014.48 1014.09 1013.79 1012.97 1011.44 1011.63 1010.60 1009.62 1007.42 1006.43 1005.52 1003.22 1002.46 1002.88 1003.25 1003.55 1003.79 1003.67 1003.63 1003.29 1003.01 1002.55 1001.38 1000.55 1000.41 999.95 999.20 999.06 998.56 997.95 998.14 998.78 999.36 999.74 999.88 999.90 999.80 999.89 1000.02 1000.28 1000.48 1000.61
1015.74 1015.09 1014.57 1013.99 1013.40 1013.24 1013.17 1009.96 1006.46 1005.73 1005.54 1005.10 1004.80 1004.28 1003.59 1003.11 1003.06 1003.06 1003.22 1003.60 1003.42 1003.05 1002.80 1002.10 1001.41 1000.58 1000.05 999.67 999.69 999.73 999.87 999.60 999.13 999.10 999.52 999.89 1000.03 1000.04 999.89 999.66 999.67 999.75 999.97 1000.23 1000.47
1015.04 1014.46 1013.78 1013.22 1012.53 1012.02 1009.95 1007.70 1006.26 1005.33 1004.74 1002.49 1003.21 1003.28 1003.45 1003.79 1002.98 1002.65 1003.25 1003.10 1002.66 1002.54 1001.94 1001.30 999.81 1000.07 1000.10 999.95 1000.34 1000.51 1000.50 1000.14 999.98 999.71 999.85 1000.28 1000.19 999.76 999.22 999.06 999.03 999.10 999.54 1000.10 1000.46
1014.49 1013.79 1013.22 1012.45 1012.02 1008.46 1007.47 1005.89 1005.95 1005.37 1004.42 1002.27 1002.29 1002.18 1002.72 1003.43 1003.27 1002.30 1002.89 1003.09 1002.40 1001.92 1001.54 1000.84 1000.22 1000.18 1000.55 1000.50 1000.45 1000.42 1000.27 1000.35 1000.48 1000.58 1000.51 1000.38 999.59 999.22 998.71 998.39 998.34 998.55 999.12 1000.15 1000.73
1014.23 1013.37 1012.66 1012.72 1010.54 1006.90 1006.18 1005.82 1005.68 1005.64 1003.64 1001.67 1001.55 1001.78 1002.07 1002.69 1001.98 1002.55 1002.69 1002.96 1002.55 1001.94 1001.66 1000.64 1000.24 1000.08 1000.29 1000.35 1000.32 1000.50 1000.57 1001.06 1001.35 1001.50 1001.32 1000.84 1000.00 998.77 998.06 997.89 997.94 999.22 1000.06 1000.81 1001.50
1013.48 1012.98 1012.41 1011.03 1010.20 1007.01 1005.83 1005.69 1005.66 1004.77 1002.18 1000.63 1000.98 1001.34 1001.71 1002.01 1001.60 1002.12 1002.79 1003.21 1002.74 1002.49 1001.97 1001.18 1000.57 1000.15 1000.08 1000.42 1000.64 1001.25 1001.80 1002.03 1001.99 1001.80 1001.14 1000.38 999.54 998.37 997.85 998.59 999.25 1000.17 1000.99 1001.60 1002.08
1012.96 1012.09 1012.18 1010.09 1007.07 1005.78 1005.63 1005.13 1004.51 1002.43 1000.78 1000.31 1000.26 1000.87 1001.21 1001.22 1001.23 1001.87 1002.43 1002.82 1002.70 1002.56 1002.29 1001.79 1001.24 1000.79 1000.72 1000.97 1001.10 1001.58 1002.07 1001.83 1001.38 1001.00 1000.31 999.58 999.48 998.45 998.37 999.24 1000.04 1000.89 1001.51 1002.04 1002.56
1012.30 1010.90 1009.20 1008.61 1006.67 1006.11 1005.56 1004.55 1003.06 1001.31 1000.69 1000.95 1000.58 1000.16 1000.43 1000.54 1000.85 1001.20 1001.77 1002.06 1002.44 1002.39 1002.05 1001.82 1001.24 1001.44 1001.65 1000.96 1001.37 1001.67 1002.00 1002.16 1001.98 1001.53 1000.78 1000.18 1000.49 999.02 999.03 999.54 1000.56 1001.36 1001.82 1002.51 1002.85
1011.91 1009.08 1008.10 1006.68 1006.56 1006.43 1005.53 1003.49 1002.33 1001.80 1001.96 1001.62 1001.09 1000.46 1000.05 1000.04 1000.48 1000.79 1001.25 1001.56 1001.92 1002.35 1003.02 1002.23 1001.97 1002.09 1002.66 1002.57 1002.92 1002.71 1002.89 1003.15 1003.07 1003.16 1002.55 1001.52 1000.26 999.26 999.36 1000.04 1001.13 1001.90 1002.19 1002.37 1002.59
1012.25 1009.16 1006.14 1006.01 1006.29 1006.35 1005.21 1002.99 1002.14 1002.38 1002.52 1002.19 1001.64 1000.97 1000.66 1001.45 1001.61 1001.49 1001.64 1002.46 1002.34 1002.55 1003.21 1003.42 1003.41 1003.28 1002.81 1003.09 1003.37 1003.39 1003.76 1004.30 1004.07 1004.28 1003.40 1001.94 1000.67 999.59 1000.15 1000.79 1001.25 1001.51 1001.66 1001.80 1001.96
1011.41 1008.05 1005.95 1005.83 1005.91 1005.68 1004.09 1002.39 1002.48 1002.71 1003.26 1003.01 1002.51 1002.26 1001.82 1001.63 1001.72 1001.83 1001.84 1002.40 1003.03 1003.17 1003.93 1004.57 1004.95 1004.59 1003.96 1003.89 1003.79 1003.75 1003.99 1004.41 1004.56 1004.84 1004.59 1003.36 1001.50 1000.30 1000.78 1001.16 1001.47 1001.53 1001.53 1001.43 1001.39
1010.33 1006.90 1005.52 1005.52 1005.47 1003.91 1003.02 1002.87 1003.57 1003.15 1003.22 1003.38 1003.32 1003.31 1003.14 1003.19 1003.06 1002.71 1002.52 1003.54 1003.87 1003.77 1004.27 1005.40 1006.27 1005.32 1004.23 1003.95 1003.56 1003.87 1003.86 1004.69 1005.41 1004.86 1004.38 1003.74 1002.40 1001.16 1000.87 1001.01 1001.01 1000.90 1000.89 1000.86 1001.09
1010.76 1006.62 1005.30 1005.42 1004.38 1003.07 1002.90 1003.35 1003.37 1003.54 1003.62 1003.68 1003.76 1003.91 1003.90 1004.14 1004.40 1004.22 1004.00 1003.76 1004.06 1004.95 1005.11 1005.71 1006.28 1005.76 1004.73 1004.22 1003.84 1004.06 1004.09 1004.28 1004.68 1004.81 1004.55 1003.72 1002.56 1001.53 1000.95 1000.60 1000.55 1000.50 1000.58 1000.67 1000.86
1011.42 1006.45 1004.79 1004.98 1004.77 1004.74 1003.88 1003.66 1003.40 1003.80 1004.49 1004.69 1004.92 1005.12 1005.05 1004.98 1005.35 1005.41 1005.10 1005.32 1005.28 1005.23 1006.28 1007.28 1007.04 1006.82 1005.89 1005.58 1005.45 1004.42 1004.23 1003.86 1003.86 1003.80 1003.28 1002.46 1001.71 1001.02 1000.75 1000.26 1000.36 1000.43 1000.62 1001.02 1001.35
1011.36 1007.50 1007.03 1005.50 1005.15 1005.48 1005.38 1005.02 1004.30 1004.23 1005.00 1005.75 1005.77 1006.08 1006.71 1006.57 1006.41 1006.38 1006.46 1006.48 1006.82 1007.02 1006.82 1007.44 1007.43 1007.21 1006.59 1005.75 1005.76 1005.57 1004.57 1003.69 1003.06 1002.67 1002.17 1001.70 1000.95 1000.55 1000.34 1000.30 1000.61 1001.03 1001.61 1001.99 1002.23
1011.28 1009.55 1008.29 1007.40 1006.36 1006.33 1005.69 1005.17 1005.22 1005.29 1006.61 1006.29 1007.05 1007.25 1007.91 1007.96 1007.82 1007.98 1007.89 1007.95 1007.77 1007.55 1008.13 1007.96 1007.95 1007.86 1007.15 1006.45 1005.42 1004.35 1003.69 1003.01 1002.23 1001.85 1001.42 1001.26 1000.86 1000.65 1000.67 1001.02 1001.43 1002.20 1002.57 1002.74 1002.86
1011.46 1010.40 1009.81 1007.98 1006.76 1006.53 1005.61 1005.88 1006.76 1007.67 1007.59 1007.76 1008.33 1008.64 1008.70 1008.83 1009.18 1008.92 1008.88 1008.81 1008.89 1008.70 1008.71 1009.41 1008.86 1008.47 1007.24 1006.21 1005.02 1003.90 1002.78 1002.04 1001.56 1001.37 1001.17 1001.12 1001.10 1001.56 1001.89 1002.22 1002.67 1002.90 1003.05 1003.20 1003.86
Wind_Speed
19 18 17 16 15 14 14 13 12 12 13 13 13 13 14 14 16 16 21 13 11 16 11 13 17 19 20 21 21 22 16 16 24 23 16 9 1 16 3 13 10 5 8 7 11
20 20 19 18 17 15 14 14 12 12 12 13 14 13 13 13 17 22 21 14 10 8 14 17 19 20 17 21 19 20 16 24 21 20 18 20 17 12 6 17 16 12 13 9 7
19 19 19 19 19 16 15 14 13 12 11 12 13 13 12 13 14 3 5 17 12 10 17 20 15 19 20 18 22 22 19 19 23 19 16 8 11 7 11 19 12 10 12 12 9
17 18 19 19 19 18 17 15 13 13 11 11 11 12 12 13 5 6 8 12 11 12 15 20 21 21 19 21 21 19 22 22 21 21 5 8 9 15 15 15 14 10 12 11 10
17 16 18 19 18 17 18 17 14 13 12 10 10 10 10 10 12 8 11 7 10 11 17 21 18 18 19 20 19 22 18 21 22 17 4 8 12 14 16 15 14 12 11 10 11
16 18 17 18 18 18 17 18 14 12 11 10 9 8 9 12 8 10 8 10 12 15 20 24 13 17 19 18 17 15 21 18 11 15 12 15 15 14 15 12 14 10 10 13 12
17 16 17 18 18 18 17 17 15 12 11 10 8 7 11 17 4 9 9 10 15 21 20 14 13 14 12 14 11 19 6 14 19 11 15 13 15 17 17 15 15 13 10 11 11
18 17 18 18 18 19 19 17 17 14 11 9 7 8 10 7 13 9 10 12 9 13 13 8 7 13 14 9 6 12 13 14 17 19 16 13 13 14 15 17 13 6 10 11 12
21 20 18 20 19 20 20 20 20 14 10 8 6 8 10 5 11 11 10 7 8 10 7 2 8 13 13 12 10 11 13 18 18 23 13 15 13 15 12 7 8 9 9 11 11
21 21 19 20 20 19 18 20 8 4 7 9 9 8 11 13 13 11 10 8 8 7 8 8 8 12 12 11 13 18 19 15 17 15 12 12 14 13 12 11 11 14 11 10 9
22 22 22 21 20 17 15 5 6 7 12 9 6 8 2 7 11 9 10 8 10 9 12 15 12 14 17 17 19 19 12 13 6 4 5 6 9 12 14 14 12 12 11 11 9
22 23 23 23 21 16 10 7 8 11 11 23 14 14 12 3 8 11 12 11 13 14 14 12 13 16 15 13 7 9 8 13 12 11 9 10 13 14 15 15 14 13 11 10 7
22 23 24 24 21 12 12 14 12 13 8 9 18 16 11 3 10 12 13 14 11 13 14 15 12 11 8 5 7 11 12 13 13 12 6 8 15 20 19 20 18 13 8 5 9
23 24 23 24 11 8 11 11 10 5 6 12 9 8 16 9 7 13 12 12 13 12 13 13 14 5 8 10 12 11 12 13 9 10 10 12 13 16 14 13 14 12 8 10 13
25 25 24 12 14 4 6 5 7 3 3 11 10 8 16 13 11 8 10 14 15 14 9 14 13 14 12 12 11 11 9 9 8 12 14 16 13 14 16 16 2 14 14 12 10
25 25 23 3 7 12 8 5 5 6 3 7 9 11 14 17 9 13 11 12 10 13 16 18 17 7 11 11 3 7 9 12 15 14 15 20 19 15 7 10 9 10 8 9 9
27 28 17 9 8 8 6 7 6 7 9 3 11 11 16 13 12 10 14 15 11 11 13 14 16 14 12 13 11 12 12 11 12 12 12 9 7 8 6 10 7 6 5 5 7
30 30 8 9 12 7 7 8 8 8 10 5 6 3 13 11 9 13 13 11 15 17 14 12 10 2 14 6 6 10 12 7 9 11 13 17 7 7 1 9 9 5 7 6 5
29 8 7 8 6 7 9 7 5 8 6 8 11 9 12 9 5 9 12 9 7 11 12 9 13 3 2 6 4 7 11 11 10 11 12 12 18 14 11 10 11 7 10 8 7
10 9 11 3 4 7 9 11 1 5 6 7 10 8 3 5 4 8 5 4 10 4 3 7 12 14 13 5 11 13 9 8 6 4 8 10 8 6 10 5 2 8 10 7 8
5 6 7 5 3 8 10 4 2 8 4 5 10 12 13 12 8 12 5 5 5 8 4 9 8 12 9 6 11 8 9 11 11 8 4 5 7 8 7 6 7 9 11 11 11
6 6 7 3 7 9 7 6 3 7 2 7 5 8 10 11 14 17 10 7 8 4 7 2 5 11 17 15 11 11 11 10 6 10 10 10 13 16 5 6 10 13 12 12 9
7 10 6 3 7 7 6 4 5 6 5 4 6 10 10 8 6 8 12 13 2 11 3 2 5 9 13 12 14 11 13 12 10 10 15 13 9 14 16 14 11 11 13 13 11
7 5 6 6 5 8 11 7 9 7 4 3 6 10 10 9 8 5 8 4 13 4 12 3 8 11 11 3 8 9 15 15 15 12 14 16 18 15 15 12 14 13 12 14 15
6 3 4 6 5 6 8 11 10 6 3 4 4 6 6 5 7 9 7 9 7 3 4 7 12 15 17 21 12 16 19 20 18 17 18 16 18 16 16 14 12 13 16 17 19
6 6 7 12 9 8 4 10 6 3 2 1 3 9 5 9 9 11 10 8 7 6 4 8 11 12 15 19 19 21 19 23 20 19 18 19 19 17 11 12 13 14 18 20 20
7 7 5 8 9 6 4 4 3 3 5 2 5 6 7 6 8 12 11 10 12 11 3 3 5 6 13 16 15 16 19 21 17 15 16 15 13 13 13 16 17 17 18 19 19
Wind_Direction
353 351 348 343 338 331 326 321 317 312 305 300 296 293 294 298 295 265 249 244 232 235 295 276 215 225 229 236 231 217 234 238 244 251 242 250 227 248 323 303 316 316 306 344 95
349 346 347 345 342 336 327 320 316 311 304 300 297 298 301 307 292 273 253 196 162 174 243 230 203 211 217 227 221 226 225 237 241 249 275 281 312 228 226 245 257 255 257 274 266
345 342 342 343 341 337 330 321 313 310 303 303 300 301 305 303 271 330 104 160 164 195 237 248 220 205 217 214 221 218 236 234 246 247 233 292 307 284 265 274 254 261 297 290 306
341 340 338 338 338 337 333 325 313 307 303 304 303 306 308 282 298 61 120 144 167 225 233 255 244 201 214 220 218 215 229 250 252 233 234 241 274 290 280 268 290 287 281 297 295
337 337 334 332 331 331 332 326 314 303 297 295 299 309 294 236 255 111 130 157 191 196 231 240 222 204 214 219 217 220 234 227 242 267 261 250 250 251 259 269 263 261 269 278 259
331 332 332 329 326 325 324 324 308 296 287 287 291 304 257 264 88 137 128 168 194 201 235 241 218 210 217 234 216 218 231 251 223 249 237 245 246 243 247 249 266 269 264 260 267
327 325 327 326 323 321 318 320 315 289 281 276 278 267 264 255 338 150 154 181 207 214 234 232 229 222 251 251 244 235 246 237 251 231 237 238 247 249 241 230 199 218 237 258 271
324 323 321 323 322 318 317 311 309 292 270 258 260 264 262 242 235 187 193 220 244 249 271 259 318 286 233 263 218 233 239 254 223 221 226 220 253 255 219 212 216 231 230 234 242
322 321 319 319 319 317 314 309 301 282 247 227 232 225 263 128 210 212 210 218 200 231 293 21 257 257 239 251 221 215 239 224 251 218 193 198 245 236 133 160 226 238 253 261 247
318 317 317 314 315 315 313 304 321 185 196 196 253 260 258 234 186 194 202 218 206 208 202 231 225 233 238 219 220 213 210 237 249 162 185 240 227 259 270 254 226 227 228 248 252
316 316 316 312 313 313 318 224 205 194 217 220 190 238 303 186 141 183 194 221 212 219 229 196 226 217 222 217 247 282 306 310 201 173 218 244 275 285 283 283 276 273 263 255 253
315 314 313 311 308 304 289 239 306 320 291 217 240 227 275 312 194 201 182 208 206 233 219 238 226 249 236 257 253 284 285 279 291 299 285 265 272 275 271 268 264 268 271 271 283
314 314 316 313 309 285 219 244 268 314 284 232 200 214 223 266 254 199 192 217 213 230 244 242 231 201 283 282 261 256 258 272 270 277 263 296 272 255 247 240 240 235 228 235 234
315 316 321 323 290 240 206 235 229 301 273 147 179 213 191 192 244 237 190 232 250 237 233 249 261 222 259 247 237 246 237 240 269 280 266 267 293 296 290 269 251 233 226 50 28
316 319 325 331 314 253 25 314 345 252 315 175 130 119 171 195 138 232 176 231 246 262 262 256 229 254 207 246 239 249 317 330 296 277 280 272 266 266 253 240 152 61 46 28 19
316 319 329 200 217 263 285 304 253 233 262 176 136 181 175 215 178 147 181 241 264 271 283 282 298 265 259 237 309 338 310 286 271 258 256 258 250 260 274 55 69 58 34 17 7
317 314 311 298 307 332 321 252 244 254 218 125 162 153 191 192 201 181 193 205 223 220 234 255 272 268 237 248 252 240 229 260 261 234 246 263 351 283 350 98 78 52 10 25 17
317 312 251 236 285 316 275 254 253 256 60 28 319 203 207 194 228 185 197 220 216 247 268 274 251 356 2 305 301 306 298 273 265 289 304 318 221 286 134 96 108 51 37 358 305
312 286 241 221 287 298 278 258 326 19 14 346 326 252 253 211 254 197 234 253 246 235 265 278 255 209 206 295 331 280 310 1 323 283 274 278 284 259 134 116 103 159 215 230 257
313 290 260 108 256 282 266 259 335 54 360 313 288 314 321 211 269 302 229 289 303 244 292 286 287 283 275 232 270 262 270 278 258 274 262 258 286 79 81 89 3 321 324 308 283
260 247 102 230 225 255 258 359 6 91 344 330 338 323 322 320 294 243 209 212 220 262 256 286 274 271 301 225 232 255 232 252 257 196 230 280 265 95 12 14 301 296 295 279 280
293 264 109 204 243 231 267 19 13 275 183 274 263 276 292 323 326 313 293 180 299 249 223 333 333 254 254 236 252 279 249 224 246 245 241 239 257 283 352 273 253 248 265 308 331
283 295 130 218 262 284 142 267 255 255 284 319 305 316 301 301 292 293 335 347 87 255 255 273 230 265 257 252 226 239 241 253 264 248 237 252 266 288 283 267 287 296 305 307 311
280 283 171 197 279 308 322 294 256 115 261 313 322 314 300 291 285 275 287 345 339 36 100 100 260 246 270 359 340 247 255 232 233 231 247 247 261 266 267 303 313 320 342 342 338
247 6 30 300 48 340 307 302 286 265 126 340 279 57 354 293 330 291 302 310 288 215 216 224 256 266 275 289 234 248 276 272 253 254 250 262 271 291 304 317 348 357 350 335 332
297 348 0 296 282 294 263 288 308 48 9 231 256 337 311 291 295 296 299 301 273 337 316 311 256 274 273 270 267 268 248 258 267 267 277 281 284 281 351 329 7 342 335 329 324
359 314 271 298 281 240 302 22 11 312 289 306 359 308 292 303 331 305 290 275 272 275 241 236 245 267 264 266 262 259 255 258 264 292 257 270 305 351 3 356 348 338 329 334 342